sat.trackr.live / text

‹ back to catalog

STARLINK-11233 [DTC]

NORAD 61061 · 2024-164M

PAYLOAD ACTIVE UNKNOWN

§ Identity

Operator
Country
US
Launch date
2024-09-13
Launch site
AFWTR
Launch vehicle
Mass (kg)
RCS (m²)

Purposes: comms

External: N2YO · Heavens-Above · Gunter

§ Orbital elements

Epoch: 2026-05-25T03:13:38.933760Z

Period
91.74 min
Inclination
53.1582°
Eccentricity
0.0000965
Mean motion
15.69711776 rev/d
Perigee alt
359.1 km
Apogee alt
360.4 km
Semi-major
6,737.9 km
B*
1.7921e-5
RAAN
294.5499°
Arg perigee
76.6537°
Mean anomaly
283.4588°
Rev number
9,742

§ Raw data

STARLINK-11233 [DTC]1 61061U 24164M   26145.13447840  .00001583  00000+0  17921-4 0  99902 61061  53.1582 294.5499 0000965  76.6537 283.4588 15.69711776 97426

JSON: /api/v1/satellites/61061 · /tle

For live sub-satellite position, see the globe view (requires WebGL).

§ Visibility from observer

Set your observer location to see the next 7 days of passes ≥ 10°. The values pass through the URL so the page stays shareable.

No JS? Fill the form by hand. The geolocation button needs JavaScript.